User: anonymous   Login
Location: Caltech
(34.1382°N, 118.1253°W)
Time: 20:29:32
(UTC-07:00)
Language:

Cosmos-2242 - Orbit

View from above orbital plane
View from above orbital plane
View from above satellite
View from above satellite

Ground track
Ground track

The orbit data is extracted from the following two-line orbital elements,

1 22626U 93024A   15180.73488597  .00000417  00000-0  43651-4 0  9997
2 22626 082.5215 358.8466 0018958 349.5360 010.5460 14.87021051199356
Epoch (UTC): 29 June 2015 17:38:14
Eccentricity: 0.0018958
inclination: 82.5215°
perigee height: 594 km
apogee height: 620 km
right ascension of ascending node: 358.8466°
argument of perigee: 349.5360°
revolutions per day: 14.87021051
mean anomaly at epoch: 10.5460°
orbit number at epoch: 19935

The dashed part of the orbit path shows where the satellite is in the earth's shadow,  

DLR